Location: Colonia Mina de C?rbuni
(46.1667°N, 22.7167°E)
Time: 17:41:01
(UTC+00:00)

Cosmos 1606 - Pass Details

Date: 04 February 2023
Orbit: 487 x 509 km, 82.5° (Epoch: 29 March)

Event Time Altitude Azimuth Distance (km) Brightness Sun altitude
Rises 16:43:18 0° 5° (N) 2,652 6.1 -11.6°
Reaches altitude 10° 16:46:00 10° 25° (NNE) 1,760 5.1 -12.1°
Enters shadow 16:47:56 17° 54° (NE) 1,371 4.3 -12.4°
